Time,TemperatureF,DewpointF,PressureIn,WindDirection,WindDirectionDegrees,WindSpeedMPH,WindSpeedGustMPH,Humidity,HourlyPrecipIn,Conditions,Clouds,dailyrainin,SoftwareType,DateUTC
2013-01-09 00:05:00,51.0,51.0,29.94,West,281,0.0,0.0,100,0.00,,,0.05,Wunderground v.1.15,2013-01-09 08:05:00,
2013-01-09 00:35:00,50.2,50.2,29.93,WSW,244,0.0,0.0,100,0.08,,,0.03,Wunderground v.1.15,2013-01-09 08:35:00,
2013-01-09 01:05:00,49.6,49.6,29.92,WSW,254,0.0,0.0,100,0.00,,,0.03,Wunderground v.1.15,2013-01-09 09:05:00,
2013-01-09 01:35:00,49.4,49.4,29.91,WNW,289,0.0,0.0,100,0.00,,,0.03,Wunderground v.1.15,2013-01-09 09:35:00,
2013-01-09 02:05:00,49.1,49.1,29.89,South,185,0.0,0.0,100,0.00,,,0.03,Wunderground v.1.15,2013-01-09 10:05:00,
2013-01-09 02:35:00,49.1,49.1,29.88,NNE,25,0.0,0.0,100,0.00,,,0.03,Wunderground v.1.15,2013-01-09 10:35:00,
2013-01-09 03:05:00,49.2,49.2,29.87,ENE,71,0.0,0.0,100,0.00,,,0.03,Wunderground v.1.15,2013-01-09 11:05:00,
2013-01-09 08:05:00,44.2,44.2,29.86,SE,144,0.0,0.0,100,0.00,,,0.26,Wunderground v.1.15,2013-01-09 16:05:00,
2013-01-09 08:35:00,44.6,44.6,29.87,SSE,165,0.0,0.0,100,0.32,,,0.29,Wunderground v.1.15,2013-01-09 16:35:00,
2013-01-09 09:05:00,43.9,43.9,29.89,WSW,244,0.0,0.0,100,0.00,,,0.31,Wunderground v.1.15,2013-01-09 17:05:00,
2013-01-09 09:35:00,43.2,43.2,29.91,SSE,162,0.0,0.0,100,0.00,,,0.31,Wunderground v.1.15,2013-01-09 17:35:00,
2013-01-09 10:05:00,42.9,42.9,29.92,SSE,164,0.0,0.0,100,0.00,,,0.31,Wunderground v.1.15,2013-01-09 18:05:00,
2013-01-09 10:35:00,42.9,42.9,29.93,SSE,164,0.0,0.0,100,0.00,,,0.32,Wunderground v.1.15,2013-01-09 18:35:00,
2013-01-09 11:05:00,43.5,43.5,29.93,SSE,164,0.0,0.0,100,0.00,,,0.33,Wunderground v.1.15,2013-01-09 19:05:00,
2013-01-09 11:35:00,43.5,43.5,29.93,SSE,164,0.0,0.0,100,0.00,,,0.33,Wunderground v.1.15,2013-01-09 19:35:00,
2013-01-09 12:05:00,44.2,44.2,29.92,SSE,164,0.0,0.0,100,0.00,,,0.33,Wunderground v.1.15,2013-01-09 20:05:00,
2013-01-09 12:35:00,42.6,42.6,29.93,SW,229,0.0,0.0,100,0.07,,,0.35,Wunderground v.1.15,2013-01-09 20:35:00,
2013-01-09 13:05:00,44.1,44.1,29.92,SW,229,0.0,0.0,100,0.00,,,0.35,Wunderground v.1.15,2013-01-09 21:05:00,
2013-01-09 13:35:00,45.1,45.1,29.92,SSW,205,0.0,0.0,100,0.00,,,0.35,Wunderground v.1.15,2013-01-09 21:35:00,
2013-01-09 14:05:00,44.1,44.1,29.93,SSW,208,0.0,0.0,100,0.00,,,0.35,Wunderground v.1.15,2013-01-09 22:05:00,
2013-01-09 14:35:00,46.0,46.0,29.93,SSW,199,0.0,0.0,100,0.00,,,0.35,Wunderground v.1.15,2013-01-09 22:35:00,
2013-01-09 15:05:00,44.3,43.5,29.93,SSW,199,0.0,0.0,97,0.00,,,0.35,Wunderground v.1.15,2013-01-09 23:05:00,
2013-01-09 15:35:00,46.7,44.8,29.93,SE,131,0.0,0.0,93,0.00,,,0.35,Wunderground v.1.15,2013-01-09 23:35:00,
2013-01-09 16:05:00,45.2,43.6,29.93,SSE,168,0.0,0.0,94,0.00,,,0.36,Wunderground v.1.15,2013-01-10 00:05:00,
2013-01-09 16:35:00,43.9,42.6,29.93,SSE,168,0.0,0.0,95,0.00,,,0.36,Wunderground v.1.15,2013-01-10 00:35:00,
2013-01-09 17:05:00,43.6,41.7,29.93,East,79,0.0,0.0,93,0.00,,,0.36,Wunderground v.1.15,2013-01-10 01:05:00,
2013-01-09 17:35:00,43.6,41.4,29.93,SSE,155,0.0,0.0,92,0.00,,,0.36,Wunderground v.1.15,2013-01-10 01:35:00,
2013-01-09 18:05:00,41.8,40.7,29.93,SSE,155,0.0,0.0,96,0.00,,,0.36,Wunderground v.1.15,2013-01-10 02:05:00,
2013-01-09 18:35:00,40.2,39.2,29.93,SSE,155,0.0,0.0,96,0.00,,,0.36,Wunderground v.1.15,2013-01-10 02:35:00,
2013-01-09 19:05:00,39.9,39.9,29.94,SSW,203,0.0,0.0,100,0.00,,,0.37,Wunderground v.1.15,2013-01-10 03:05:00,
2013-01-09 19:35:00,39.6,39.6,29.94,SSW,203,0.0,0.0,100,0.00,,,0.37,Wunderground v.1.15,2013-01-10 03:35:00,
2013-01-09 20:05:00,39.3,39.3,29.95,SSW,203,0.0,0.0,100,0.00,,,0.37,Wunderground v.1.15,2013-01-10 04:05:00,
2013-01-09 20:35:00,38.9,38.9,29.95,SE,131,0.0,0.0,100,0.00,,,0.37,Wunderground v.1.15,2013-01-10 04:35:00,
2013-01-09 21:05:00,38.6,38.6,29.95,SE,124,0.0,0.0,100,0.00,,,0.37,Wunderground v.1.15,2013-01-10 05:05:00,
2013-01-09 21:35:00,38.5,38.5,29.96,SE,124,0.0,0.0,100,0.00,,,0.38,Wunderground v.1.15,2013-01-10 05:35:00,
2013-01-09 22:05:00,37.9,37.9,29.96,SE,124,0.0,0.0,100,0.00,,,0.38,Wunderground v.1.15,2013-01-10 06:05:00,
2013-01-09 22:35:00,38.0,38.0,29.96,SE,124,0.0,0.0,100,0.00,,,0.38,Wunderground v.1.15,2013-01-10 06:35:00,
2013-01-09 23:05:00,38.2,38.2,29.96,SE,124,0.0,0.0,100,0.00,,,0.38,Wunderground v.1.15,2013-01-10 07:05:00,
2013-01-09 23:35:00,38.0,38.0,29.96,SE,124,0.0,0.0,100,0.00,,,0.38,Wunderground v.1.15,2013-01-10 07:35:00,